Погода Чюльбю

Погода Чюльбю : погода сейчас, прогноз погоды и архив. Всё, что Вы хотите узнать о погоде Чюльбю!

Хотите узнать прогноз погоды Чюльбю? Тогда Вам сюда: Погода Чюльбю

Поиск расширенной информации на нашем сайте:

Другие новости

Новости СМИ2

Главная страница сайта

Новости сайта

03.07.2017

Напоминаем, что на нашем специализированном сайте Метеоцентр.Азия вы можете получить высокодетализированные автоматические прогнозы погоды по пунктам России, СНГ и мира в авиационном формате (включающие направление и скорость ветра, видимость, явления погоды, количество и форму облачности, нижнюю и верхнюю границу облачности).


Погода Чюльбю - сегодня

Время (UTC), дата Ветер
(°,м/с) 
Видим.   Явления Облачность Т
(°С)
Тd
(°С)
f(%) Тe
(°С)
Pmin
(гПа)
dP
(гПа)
Po
(мм)
O2
(г/м3)
Тmin Tmax R s Состояние
почвы
15 19.07.18 020 (С) 20000 м  дым  9/0 верхняя 
[Ci fib]
+8.8 +6 83 +10  1010.9  1.2  735  286           
18 19.07.18 050 (СВ) 20000 м  дым  10/4 600 м верхняя 
[Sc|Ci fib]
+7 +5.7 91 +8  1010.7  -0.4  735  288           
21 19.07.18 тихо ()   20000 м  дым  10/10 600 м 
[Sc]
+8.3 +6.8 90 +8  1011.1  0.5  735  286           
03 20.07.18 тихо ()   10 км  слаб. ливневой дождь{гроза}  10/10 600 м кучево-дожд. 
[Cb cap]
+11.8 +10.6 92 +14  1010.1  -0.6  735  282           
06 20.07.18 тихо ()   10 км  слаб. ливневой дождь  10/10 600 м кучево-дожд. 
[Cb cap]
+12.5 +11.6 94 +16  1009.6  -0.4  735  281           
09 20.07.18 тихо ()   20000 м  в посл. час ливневой дождь  10/10 600 м кучево-дожд. 
[Cb cap]
+13.9 +12.4 91 +19  1008.8  -0.6  734  279           
15 20.07.18 тихо ()   20000 м    10/10 600 м кучево-дожд. 
[Cb cap]
+12 +11.4 96 +16  1009.2  0.1  734  281           
18 20.07.18 тихо ()   20000 м    10/10 600 м кучево-дожд. 
[Cb cap]
+10.9 +10.3 96 +13  1009.4  734  283           
21 20.07.18 тихо ()   20000 м    10/10 600 м кучево-дожд. 
[Cb cap]
+11.5 +11.1 97 +15  1009.5  0.2  734  282           
00 21.07.18 050 (СВ) 20000 м    9/9 600 м кучево-дожд. 
[Cb cap]
+13.9 +11.7 87 +19  1010.2  0.9  735  280  +10.6        влажная 
03 21.07.18 140 (ЮВ) 20000 м    8/8 600 м 
[Sc]
+20 +12.8 63 +26  1008.9  -0.6  735  273           
06 21.07.18 120 (ЮВ) 20000 м    5/5 1000 м 
[Cu med, cong]
+24.2 +14.1 53 +32  1006.5  -1.9  733  269           
09 21.07.18 190 (Ю) 20000 м    6/3 600 м верхняя 
[Sc|Ci fib]
+26.2 +14.1 47 +34  1004.8  -1.5  732  266           
15 21.07.18 тихо ()   20000 м    9/0 верхняя 
[Ci fib]
+13.4 +12.7 96 +19  1006.2  732  279           
18 21.07.18 тихо ()   20000 м    9/9 600 м 
[Sc]
+12.2 +11.4 95 +16  1005.9  -0.4  732  280           
21 21.07.18 тихо ()   20000 м    8/0 средняя 
[Ac trans]
+11.5 +10.7 95 +14  1005.1  -0.8  731  281           
03 22.07.18 180 (Ю) 20000 м  дым  10/10 600 м 
[Sc]
+21.4 +15.9 71 +33  1000.2  -1.8  728  269           
06 22.07.18 150 (ЮВ) 20000 м  дым  10/6 600 м средняя 
[Sc|As trans]
+23.6 +16.2 63 +35  999.3  -0.6  728  266           
09 22.07.18 160 (Ю) 20000 м  в посл. час ливневой дождь  10/10 600 м кучево-дожд. 
[Cb cap]
+20.3 +15.2 73 +30  999.2  -0.5  728  270           
15 22.07.18 190 (Ю) 20000 м    10/10 600 м кучево-дожд. 
[Cb cap]
+17.6 +15.4 87 +29  999  -0.3  727  272           
18 22.07.18 тихо ()   20000 м  в посл. час ливневой дождь  10/10 600 м кучево-дожд. 
[Cb cap]
+16.5 +15.5 94 +27  999.2  0.1  727  273           
21 22.07.18 тихо ()   20000 м    10/10 600 м кучево-дожд. 
[Cb cap]
+16 +15.3 96 +26  999.7  0.4  728  274           
03 23.07.18 080 (В) 20000 м  {ливн. осадки}  10/10 600 м кучево-дожд. 
[Cb cap]
+14.7 +11.7 82 +20  1004.4  2.2  731  277           
06 23.07.18 200 (Ю) 20000 м  {ливн. осадки}  10/10 600 м кучево-дожд. 
[Cb cap]
+16.4 +12.6 78 +23  1004.6  0.4  731  275           
09 23.07.18 050 (СВ) 20000 м  дым  10/10 600 м кучево-дожд. 
[Cb cap]
+16.9 +11 68 +21  1005.7  732  276           
Время (UTC), дата Ветер
(°,м/с) 
Видим.   Явления Облачность Т
(°С)
Тd
(°С)
f(%) Тe
(°С)
Pmin
(гПа)
dP
(гПа)
Po
(мм)
O2
(г/м3)
Тmin Tmax R s Состояние
почвы

Для получения пояснительной информации подведите курсор к названию столбца.

ПОГОДА Чюльбю - архив

Всё, что Вы хотите узнать о погоде Чюльбю - удобно и подробно!

Выберите нужную дату (начиная с 1 января 2015* года) и нажмите кнопку "Найти".
Будут отображены архивные сводки погоды по пункту Чюльбю, начиная с указанной даты.


Отображать данные в формате CSV (для использования в таблицах Excel)


Внимание! Наш архив погоды предназначен исключительно для личного некоммерческого использования в познавательных целях. Если Вам необходимы официальные справки о состоянии погоды (для производственных, юридических, коммерческих и т.п. целей), обращайтесь в органы Росгидромета.

*Примечание: данная дата относится к архиву по метеостанциям СССР (Россия, СНГ, Балтия).
Архив по метеостанциям Зарубежной Европы и Азии (кроме Китая) хранится 10 дней, по другим регионам земного шара (Китай, Африка, Америка, Австралия, Океания) - 1 день.

Чюльбю - район местоположения метеостанции


Название, широта, долгота, высота метеостанции:
Чюльбю 57.8°ш. 130.9°д. 255 м над ур. моря [Российская Федерация]

Дополнительная информация

В oтличие oт бoльшинства пoгoдных сайтoв мы публикуем пoдрoбную метеoинфoрмацию в детальнoм прoфессиoнальнoм фoрмате.

Характеристики температуры и влажнoсти вoздуха измеряются на высoте 2 м в тени вдали oт зданий и деревьев.
Скoрoсть ветра измеряется на высoте 10 м (на урoвне рoста челoвека скoрoсть ветра ниже в 1.5-2 раза). Если метеoстанция нахoдится в гoрoде или в лесу, тo скoрoсть ветра занижена на 2-4 м/с пo сравнению с oткрытым местoм. Скoрoсть ветра над акватoриями крупных рек и oзёр, а также на вершинах хoлмoв на 2-5 м/с выше, чем в oбычных услoвиях.
Атмoсфернoе давление в разных тoчках местнoсти мoжет значительнo oтличаться oт давления на метеoстанции, в зависимoсти oт услoвий рельефа (при пoдъёме на 10 м давление пoнижается примернo на 1 мм рт.ст.).